Location: Unspecified
(0.0000°N, 0.0000°E)
Time: 11:42:47
(UTC+00:00)

Altair - Visible Passes

Search period start: 07 October 2022 00:00
Search period end: 17 October 2022 00:00
Orbit: 1501 x 1682 km, 47.2° (Epoch: 06 October)

Date Brightness Start Highest point End Pass type
(mag) Time Alt. Az. Time Alt. Az. Time Alt. Az.
14 Oct 9.6 21:16:17 10° S 21:16:23 10° S 21:16:23 10° S visible
15 Oct 9.3 20:51:27 10° S 20:52:44 14° S 20:52:44 14° S visible
16 Oct 9.1 20:26:40 10° S 20:29:08 17° S 20:29:08 17° S visible
